{"data":{"norad_id":81816,"epoch":"2026-09-17T10:26:33.999072Z","epoch_age_seconds":283148,"freshness":"STALE","line1":"1 81816U          26260.43511573  .00000765  00000+0  61365-3 0  9990","line2":"2 81816  66.2387 320.8987 0163219  84.2778 277.6880 13.90136800648077","mean_motion":13.901368,"eccentricity":0.0163219,"inclination_deg":66.2387,"raan_deg":320.8987,"arg_perigee_deg":84.2778,"mean_anomaly_deg":277.688,"bstar":0.00061365,"rev_number":64807,"period_min":103.58692755994,"perigee_km":808.89894848326,"apogee_km":1047.4039676507,"semimajor_km":7306.288458067,"source":"CELESTRAK","updated_at":"2026-09-20T09:00:32.395649Z"}}